[[{"header":{"parameterUnit":"m.s-1","parameterCategory":1,"la1":30.2991,"la2":30.254,"lo1":-89.0895,"lo2":-89.0444,"dy":0.0017,"dx":0.0017,"nx":28,"ny":28,"refTime":"2025-11-23T03:00:00:Z","depth":0,"parameterNumber":2,"parameterNumberName":"U-component_of_WINDS"},"data":[0,0,0,0,0,0,0,0,0,0,0,0,0,0,0,0,0,0,0,0,0,0,0,0,0,0,0,0,0,0,0,0,0,0,0,0,0,0,0,0,0,0,0,0,0,0,0,0,0,0,0,0,0,0,0,0,0,0,-0.4396,-0.4395,0,-0.435,-0.435,-0.4349,-0.4322,-0.4322,-0.4322,-0.4321,-0.4276,-0.4275,-0.4274,0,0,0,0,0,0,0,0,0,0,0,0,0,-0.4459,-0.4458,-0.4396,-0.4395,-0.4394,-0.435,-0.435,-0.4349,-0.4322,-0.4322,-0.4322,-0.4321,-0.4276,-0.4275,-0.4274,0,0,0,0,0,0,0,0,0,0,0,0,0,-0.4424,-0.4457,-0.4396,-0.4376,-0.4373,-0.435,-0.435,-0.4349,-0.4322,-0.4322,-0.4322,-0.4321,-0.4277,-0.4275,-0.4274,-0.4268,0,0,-0.4269,-0.4268,0,0,0,0,0,0,0,0,-0.4426,-0.4422,-0.4379,-0.4377,-0.4374,-0.4341,-0.4355,-0.4322,-0.4322,-0.4341,-0.4321,-0.4321,-0.4298,-0.4295,-0.4287,-0.4265,-0.4263,-0.4269,-0.4268,-0.4267,-0.4266,0,0,0,0,0,0,0,-0.4429,-0.4424,-0.4378,-0.4378,-0.4376,-0.4369,-0.4364,-0.4349,-0.4321,-0.434,-0.4338,-0.4333,-0.4297,-0.4288,-0.4285,-0.4263,-0.4269,-0.4267,-0.4266,-0.4266,-0.4233,-0.4233,0,0,0,0,0,0,-0.4434,-0.4426,-0.4379,-0.4376,-0.44,-0.4368,-0.4362,-0.4352,-0.4322,-0.4317,-0.4333,-0.4331,-0.4291,-0.4287,-0.4284,-0.4273,-0.4267,-0.4265,-0.4264,-0.4232,-0.4233,-0.4233,0,0,0,0,0,0,-0.4436,-0.443,-0.4381,-0.44,-0.4394,-0.4367,-0.4356,-0.4351,-0.4343,-0.4316,-0.4311,-0.4329,-0.4291,-0.4286,-0.4271,-0.4272,-0.4265,-0.4263,-0.4232,-0.4232,-0.4233,-0.4254,0,0,0,0,0,0,-0.4437,-0.4431,-0.4428,-0.4401,-0.4393,-0.4369,-0.4356,-0.4351,-0.434,-0.4338,-0.4312,-0.4307,-0.429,-0.4274,-0.427,-0.4269,-0.4262,-0.4232,-0.4232,-0.4233,-0.4253,-0.4255,-0.4256,0,0,0,0,0,-0.444,-0.4437,-0.4428,-0.4423,-0.4389,-0.437,-0.4365,-0.4346,-0.434,-0.4337,-0.432,-0.4308,-0.4272,-0.4273,-0.4268,-0.4267,-0.4232,-0.4232,-0.4233,-0.4252,-0.4254,-0.4256,0,0,0,0,0,0,-0.4466,-0.4433,-0.4423,-0.4411,-0.4393,-0.4365,-0.4361,-0.4349,-0.4332,-0.4331,-0.4308,-0.4302,-0.4289,-0.4277,-0.4278,-0.4258,-0.4251,-0.425,-0.4267,-0.4269,-0.4271,-0.4274,-0.4261,0,0,0,0,0,-0.447,-0.4457,-0.4429,-0.4421,-0.4412,-0.4388,-0.4379,-0.4365,-0.4346,-0.4339,-0.432,-0.4302,-0.4287,-0.4277,-0.4262,-0.4251,-0.4244,-0.4247,-0.4249,-0.425,-0.425,-0.4242,-0.4243,-0.4233,-0.4233,-0.4233,0,0,-0.448,-0.446,-0.4453,-0.4426,-0.441,-0.4397,-0.4382,-0.4369,-0.4359,-0.4337,-0.4321,-0.4307,-0.4285,-0.4272,-0.4266,-0.4261,-0.4251,-0.4251,-0.4252,-0.4251,-0.4243,-0.4244,-0.4244,-0.4234,-0.4234,-0.4234,0,0,-0.4489,-0.4473,-0.4464,-0.4448,-0.4425,-0.4408,-0.4406,-0.4379,-0.4369,-0.4353,-0.4335,-0.4323,-0.4297,-0.4282,-0.4271,-0.4273,-0.4261,-0.4268,-0.4277,-0.4269,-0.427,-0.4271,-0.4271,-0.4271,-0.4268,-0.4268,-0.4268,0,-0.4503,-0.4483,-0.4461,-0.4448,-0.4436,-0.4415,-0.4405,-0.4391,-0.4364,-0.4356,-0.4351,-0.4317,-0.4301,-0.4284,-0.4284,-0.4276,-0.4272,-0.4271,-0.4272,-0.4272,-0.4272,-0.4272,-0.4272,-0.4269,-0.4269,-0.4269,-0.4269,0,-0.4501,-0.4487,-0.4482,-0.4455,-0.4443,-0.4432,-0.4408,-0.4398,-0.4385,-0.4369,-0.4353,-0.4332,-0.4312,-0.4306,-0.4294,-0.4287,-0.4285,-0.4276,-0.4268,-0.4274,-0.4274,-0.4274,-0.4271,-0.427,-0.427,-0.427,0,0,-0.4527,-0.4487,-0.4486,-0.4473,-0.4445,-0.4433,-0.4421,-0.44,-0.4391,-0.4373,-0.4361,-0.4339,-0.433,-0.4318,-0.4303,-0.4297,-0.4298,-0.4289,-0.4288,-0.4291,-0.4288,-0.4295,-0.4295,-0.429,-0.429,-0.429,-0.429,0,-0.4532,-0.4509,-0.4488,-0.4472,-0.4458,-0.4436,-0.4425,-0.4407,-0.4391,-0.4377,-0.4359,-0.4344,-0.4334,-0.4326,-0.4318,-0.43,-0.4297,-0.4299,-0.4279,-0.4278,-0.4285,-0.4295,-0.4302,-0.4303,-0.4289,-0.4289,-0.4289,0,-0.4536,-0.4517,-0.45,-0.4471,-0.4464,-0.4455,-0.4433,-0.442,-0.4398,-0.4387,-0.4372,-0.4356,-0.4341,-0.4334,-0.4313,-0.4315,-0.4305,-0.4295,-0.4294,-0.4292,-0.4284,-0.4292,-0.4303,-0.4303,-0.4289,-0.4289,-0.4289,0,-0.4556,-0.4527,-0.4512,-0.4502,-0.4468,-0.4462,-0.4448,-0.4425,-0.4413,-0.4394,-0.4386,-0.4366,-0.4355,-0.434,-0.4319,-0.4315,-0.4299,-0.4291,-0.429,-0.429,-0.4288,-0.4288,-0.4297,-0.4281,-0.4281,-0.4281,-0.4281,0,-0.4564,-0.4554,-0.452,-0.4512,-0.4499,-0.4475,-0.4464,-0.4448,-0.4427,-0.4414,-0.4394,-0.4383,-0.4356,-0.4341,-0.4324,-0.4309,-0.4304,-0.4294,-0.429,-0.4296,-0.4297,-0.429,-0.4289,-0.4281,-0.4281,-0.4281,-0.4281,0,-0.4585,-0.4562,-0.4545,-0.4514,-0.4506,-0.4498,-0.4472,-0.4462,-0.4444,-0.4428,-0.4423,-0.4396,-0.4377,-0.4354,-0.4328,-0.4317,-0.4303,-0.4296,-0.431,-0.4308,-0.4308,-0.4308,-0.4312,-0.4311,-0.4296,-0.4296,-0.4297,0,-0.4592,-0.4584,-0.4552,-0.4541,-0.4528,-0.4511,-0.4499,-0.4474,-0.4462,-0.4435,-0.4428,-0.4407,-0.439,-0.436,-0.4338,-0.4317,-0.431,-0.4313,-0.4307,-0.4313,-0.431,-0.4311,-0.4309,-0.4315,-0.4315,-0.4315,-0.4316,0,-0.4607,-0.4595,-0.4578,-0.4556,-0.4541,-0.4523,-0.4504,-0.4497,-0.4468,-0.4455,-0.4435,-0.4421,-0.4394,-0.4373,-0.4349,-0.4335,-0.432,-0.4317,-0.4316,-0.4322,-0.433,-0.4325,-0.4314,-0.4318,-0.4317,-0.4317,-0.4317,-0.4317,-0.4621,-0.4612,-0.4587,-0.4568,-0.4551,-0.4533,-0.4522,-0.4502,-0.4485,-0.446,-0.4447,-0.4427,-0.4403,-0.437,-0.4355,-0.4339,-0.4334,-0.4332,-0.4331,-0.4331,-0.4333,-0.4333,-0.4334,-0.4334,-0.4334,-0.4334,-0.4334,0,-0.4634,-0.4617,-0.4599,-0.4572,-0.4557,-0.4544,-0.4521,-0.451,-0.4492,-0.4471,-0.4453,-0.443,-0.4409,-0.4384,-0.4362,-0.4354,-0.4347,-0.4349,-0.4349,-0.4346,-0.4339,-0.4342,-0.4355,-0.4355,-0.4355,-0.4355,-0.4355,-0.4355,-0.4639,-0.4623,-0.4608,-0.4583,-0.4565,-0.4545,-0.4533,-0.4517,-0.4499,-0.4474,-0.4456,-0.444,-0.4417,-0.4393,-0.4373,-0.4366,-0.4359,-0.4363,-0.4354,-0.4348,-0.4347,-0.4345,-0.4348,-0.4362,-0.4362,-0.4362,-0.4362,-0.4362]},{"header":{"parameterUnit":"m.s-1","parameterCategory":1,"la1":30.2991,"la2":30.254,"lo1":-89.0895,"lo2":-89.0444,"dy":0.0017,"dx":0.0017,"nx":28,"ny":28,"refTime":"2025-11-23T03:00:00:Z","depth":0,"parameterNumber":3,"parameterNumberName":"V-component_of_WINDS"},"data":[0,0,0,0,0,0,0,0,0,0,0,0,0,0,0,0,0,0,0,0,0,0,0,0,0,0,0,0,0,0,0,0,0,0,0,0,0,0,0,0,0,0,0,0,0,0,0,0,0,0,0,0,0,0,0,0,0,0,-3.3965,-3.3964,0,-3.3932,-3.3932,-3.3931,-3.3892,-3.3891,-3.3891,-3.389,-3.3853,-3.3853,-3.3852,0,0,0,0,0,0,0,0,0,0,0,0,0,-3.3991,-3.3991,-3.3965,-3.3964,-3.3964,-3.3932,-3.3932,-3.3931,-3.3892,-3.3891,-3.389,-3.389,-3.3853,-3.3853,-3.3852,0,0,0,0,0,0,0,0,0,0,0,0,0,-3.3971,-3.3991,-3.3965,-3.394,-3.3938,-3.3932,-3.3932,-3.3931,-3.3892,-3.3891,-3.389,-3.3889,-3.3853,-3.3853,-3.3852,-3.3866,0,0,-3.385,-3.385,0,0,0,0,0,0,0,0,-3.3972,-3.397,-3.3944,-3.3942,-3.3939,-3.3915,-3.3927,-3.3909,-3.3892,-3.3909,-3.389,-3.3889,-3.3874,-3.3872,-3.3867,-3.3864,-3.3863,-3.385,-3.385,-3.3849,-3.3849,0,0,0,0,0,0,0,-3.3974,-3.3971,-3.3951,-3.3944,-3.3941,-3.3931,-3.3927,-3.3924,-3.3897,-3.3908,-3.3905,-3.3902,-3.3873,-3.3868,-3.3866,-3.3862,-3.385,-3.3849,-3.3849,-3.3849,-3.3872,-3.3873,0,0,0,0,0,0,-3.3979,-3.3973,-3.3953,-3.3951,-3.3954,-3.3931,-3.3927,-3.3924,-3.3897,-3.3892,-3.3903,-3.39,-3.387,-3.3867,-3.3865,-3.3881,-3.3849,-3.3849,-3.3848,-3.3871,-3.3872,-3.3873,0,0,0,0,0,0,-3.398,-3.3978,-3.3954,-3.3961,-3.3957,-3.3932,-3.3928,-3.3924,-3.3919,-3.3893,-3.3888,-3.3903,-3.3869,-3.3866,-3.3867,-3.3879,-3.3848,-3.3848,-3.3869,-3.3871,-3.3872,-3.3913,0,0,0,0,0,0,-3.3981,-3.3978,-3.3983,-3.3961,-3.3957,-3.3957,-3.3929,-3.3924,-3.3919,-3.3915,-3.3892,-3.3888,-3.3868,-3.3868,-3.3866,-3.3878,-3.3847,-3.3868,-3.387,-3.3872,-3.391,-3.3916,-3.392,0,0,0,0,0,-3.3982,-3.3995,-3.3984,-3.3982,-3.3963,-3.3958,-3.3955,-3.3933,-3.392,-3.3925,-3.3909,-3.3888,-3.3878,-3.3869,-3.3866,-3.3878,-3.3867,-3.387,-3.3872,-3.3908,-3.3915,-3.392,0,0,0,0,0,0,-3.4016,-3.3991,-3.3979,-3.3985,-3.3974,-3.3951,-3.3956,-3.394,-3.3932,-3.3929,-3.3901,-3.3896,-3.3901,-3.3889,-3.3879,-3.3891,-3.387,-3.3872,-3.3899,-3.3905,-3.3909,-3.3912,-3.3847,0,0,0,0,0,-3.4025,-3.4024,-3.4002,-3.4009,-3.4005,-3.3982,-3.3979,-3.3963,-3.395,-3.3945,-3.3928,-3.3916,-3.391,-3.3907,-3.39,-3.3909,-3.3904,-3.3916,-3.3921,-3.3925,-3.3927,-3.3933,-3.3938,-3.388,-3.388,-3.388,0,0,-3.4042,-3.4029,-3.4029,-3.4016,-3.4006,-3.4005,-3.3978,-3.3977,-3.3976,-3.3944,-3.3945,-3.3933,-3.3917,-3.3923,-3.3925,-3.3914,-3.3942,-3.3928,-3.3931,-3.3931,-3.3936,-3.3941,-3.3946,-3.3882,-3.3881,-3.3881,0,0,-3.4074,-3.4063,-3.4069,-3.406,-3.4046,-3.4031,-3.4033,-3.4013,-3.4005,-3.4006,-3.3982,-3.398,-3.3971,-3.3961,-3.3955,-3.3987,-3.3968,-3.3985,-3.401,-3.4017,-3.4021,-3.4025,-3.4038,-3.4042,-3.3987,-3.3987,-3.3987,0,-3.4096,-3.4095,-3.4074,-3.4076,-3.4072,-3.4045,-3.4051,-3.4043,-3.4027,-3.4024,-3.4012,-3.4002,-3.3989,-3.3993,-3.4002,-3.3997,-3.3998,-3.3987,-3.4022,-3.4026,-3.4029,-3.4041,-3.4046,-3.3989,-3.3989,-3.3989,-3.3988,0,-3.4124,-3.4124,-3.4131,-3.4119,-3.4115,-3.4119,-3.4098,-3.4097,-3.4083,-3.407,-3.4072,-3.4057,-3.4047,-3.4047,-3.4032,-3.405,-3.4044,-3.4028,-3.4006,-3.4038,-3.4048,-3.4052,-3.3992,-3.3992,-3.3991,-3.399,0,0,-3.4174,-3.4153,-3.4155,-3.4151,-3.4135,-3.4134,-3.4137,-3.413,-3.413,-3.4121,-3.4123,-3.4118,-3.4103,-3.4097,-3.4081,-3.4086,-3.4114,-3.4069,-3.4069,-3.4079,-3.4135,-3.4148,-3.4154,-3.4103,-3.4103,-3.4104,-3.4137,0,-3.4202,-3.4209,-3.4191,-3.4202,-3.4202,-3.4179,-3.4182,-3.4173,-3.4161,-3.4159,-3.4146,-3.4143,-3.4124,-3.412,-3.4124,-3.411,-3.4125,-3.4107,-3.4105,-3.4105,-3.411,-3.4159,-3.4172,-3.4204,-3.4141,-3.4142,-3.4142,0,-3.4235,-3.4231,-3.4242,-3.4229,-3.4228,-3.4231,-3.4225,-3.4224,-3.4213,-3.4204,-3.4199,-3.4182,-3.4184,-3.4164,-3.4169,-3.4157,-3.4155,-3.4148,-3.4149,-3.4148,-3.4126,-3.416,-3.4213,-3.4219,-3.4148,-3.4148,-3.4147,0,-3.4272,-3.4268,-3.4275,-3.4272,-3.4255,-3.4259,-3.4252,-3.4241,-3.4239,-3.4233,-3.4232,-3.4225,-3.4222,-3.4218,-3.42,-3.4187,-3.4207,-3.4184,-3.42,-3.4201,-3.4205,-3.4205,-3.4259,-3.4203,-3.4203,-3.4203,-3.4203,0,-3.4306,-3.4313,-3.4292,-3.4296,-3.4305,-3.4286,-3.4295,-3.4285,-3.4276,-3.4278,-3.4257,-3.4259,-3.4235,-3.4235,-3.4221,-3.4227,-3.4225,-3.4219,-3.4215,-3.4221,-3.4222,-3.4219,-3.4217,-3.4204,-3.4204,-3.4204,-3.4203,0,-3.4347,-3.4333,-3.4339,-3.4325,-3.4322,-3.4329,-3.4316,-3.432,-3.4308,-3.4312,-3.4311,-3.4293,-3.4292,-3.4274,-3.4268,-3.4258,-3.4271,-3.4262,-3.4275,-3.4273,-3.429,-3.4289,-3.4344,-3.4351,-3.429,-3.4291,-3.4292,0,-3.4369,-3.4375,-3.4363,-3.4364,-3.4359,-3.4361,-3.4359,-3.4341,-3.4341,-3.4331,-3.4336,-3.4334,-3.4331,-3.4331,-3.4316,-3.4313,-3.4304,-3.4324,-3.4303,-3.431,-3.4306,-3.4306,-3.4307,-3.4329,-3.4329,-3.433,-3.433,0,-3.4411,-3.4405,-3.4404,-3.4403,-3.4403,-3.44,-3.4395,-3.4397,-3.4377,-3.4378,-3.4378,-3.4376,-3.4372,-3.4371,-3.4365,-3.4357,-3.4341,-3.4338,-3.4341,-3.4347,-3.4355,-3.4352,-3.4288,-3.4336,-3.4336,-3.4335,-3.4335,-3.4335,-3.4444,-3.4449,-3.4443,-3.4444,-3.444,-3.4437,-3.4441,-3.4431,-3.4431,-3.4428,-3.4417,-3.442,-3.4412,-3.4403,-3.4397,-3.4399,-3.4388,-3.4393,-3.4394,-3.4396,-3.44,-3.4355,-3.4397,-3.4397,-3.4397,-3.4397,-3.4397,0,-3.4485,-3.4481,-3.4482,-3.4479,-3.448,-3.4467,-3.4463,-3.4464,-3.4468,-3.4462,-3.4461,-3.4462,-3.4462,-3.4449,-3.4447,-3.4451,-3.4443,-3.4451,-3.445,-3.4449,-3.4409,-3.4406,-3.4457,-3.4457,-3.4457,-3.4457,-3.4457,-3.4457,-3.4507,-3.4516,-3.451,-3.4518,-3.4513,-3.4517,-3.4516,-3.4513,-3.4509,-3.4513,-3.4513,-3.4506,-3.4497,-3.4495,-3.4494,-3.4491,-3.4491,-3.4502,-3.4495,-3.4458,-3.4452,-3.4446,-3.4444,-3.4502,-3.4502,-3.4536,-3.4536,-3.4537]}]]